EHI
0 1 3 3 1 0 0 0 0 0 0 0 0 0 0 0 0 0 0 0 0 0 0 0 0 0 0 0 0 0 0 0 1 0 0 0 0 0 0 0 0 0 0 0 0 1 0 0 0
0 1 2 2 1 0 0 0 0 0 0 0 0 0 0 0 0 0 0 0 0 0 0 0 0 0 0 0 0 0 0 0 1 1 0 0 0 0 0 0 0 0 0 0 0 1 0 0 0
0 0 1 1 0 0 0 0 0 0 0 0 0 0 0 0 0 0 0 0 0 0 0 0 0 0 0 0 0 0 0 0 1 2 1 0 0 0 0 0 0 0 0 0 0 0 0 0 0
0 0 0 0 0 0 0 0 0 0 0 0 0 0 0 0 0 0 0 0 0 0 0 0 0 0 0 0 0 0 0 0 1 2 1 1 1 1 1 0 0 0 0 0 0 0 0 0 0
0 0 0 0 0 0 0 0 0 0 0 0 0 0 0 0 0 0 0 0 0 0 0 0 0 0 0 0 0 0 0 0 1 1 1 1 2 2 2 1 1 0 0 0 0 0 0 0 0
0 0 0 0 0 0 0 0 0 0 0 0 0 0 0 0 0 0 1 1 0 0 0 0 0 0 0 0 0 0 0 0 0 0 0 1 1 1 2 2 2 1 0 0 0 0 0 0 0
0 0 0 0 0 0 0 0 0 0 0 0 0 0 0 0 0 0 1 1 0 0 0 0 0 0 0 1 1 0 0 0 0 0 0 0 0 0 1 1 2 1 0 0 0 0 0 0 0
0 0 0 0 0 0 0 0 0 1 1 0 0 0 1 1 1 0 0 0 0 0 0 0 0 0 0 1 1 0 0 0 0 0 0 0 0 0 0 0 1 1 0 0 1 1 1 1 0
0 0 0 0 0 0 0 0 0 1 2 1 1 1 3 4 2 0 0 0 0 0 0 0 0 0 0 1 1 0 0 0 0 0 0 0 0 0 0 0 0 0 0 1 2 2 2 2 1
0 0 0 0 0 0 0 0 0 1 2 2 3 5 6 6 4 1 0 0 0 0 0 0 0 0 0 0 0 0 0 0 0 0 0 0 0 0 0 0 0 0 1 1 3 3 3 2 1
0 0 0 0 0 0 0 0 0 0 1 2 4 7 9 7 4 2 1 0 0 0 0 0 0 0 0 0 0 0 0 0 0 0 0 0 0 0 0 0 0 1 2 3 3 3 3 3 2
0 0 0 0 0 0 0 0 0 0 1 3 5 7 8 7 4 2 1 0 0 0 0 0 0 0 0 0 0 0 0 0 0 0 0 0 0 0 0 0 0 1 2 3 3 3 3 3 2
0 0 0 0 0 0 1 1 0 1 3 6 6 5 4 3 2 1 0 0 0 0 0 0 0 1 1 1 1 0 0 0 0 0 0 0 0 0 0 0 1 1 3 3 3 3 3 3 2
0 0 0 0 0 0 1 1 2 3 5 7 6 4 2 1 0 0 0 0 0 0 0 0 1 2 3 3 2 1 0 1 1 1 0 0 0 0 0 0 1 2 3 3 3 3 4 3 2
0 0 0 0 0 0 1 1 3 5 6 7 6 4 1 0 0 0 0 0 0 0 0 0 1 3 6 6 4 2 1 3 4 4 1 0 0 0 0 0 1 1 2 3 3 3 3 3 2
0 0 0 0 0 0 0 1 3 6 7 8 7 5 3 1 0 0 0 0 1 2 2 1 1 3 6 7 6 4 3 5 5 4 1 0 0 0 0 1 1 1 2 3 3 3 3 3 2
0 0 0 0 0 0 0 1 2 4 6 8 7 5 3 2 1 1 1 1 2 4 4 4 4 5 7 8 8 7 7 6 5 4 3 2 1 0 0 1 2 2 3 2 1 1 2 3 2
0 0 0 0 0 0 0 0 1 1 4 7 7 4 4 4 3 4 4 4 4 5 7 8 8 8 8 8 9 10 10 9 7 6 5 5 4 1 0 1 2 3 3 2 1 0 1 2 1
0 0 0 0 0 0 0 0 0 1 2 5 6 5 5 4 4 6 8 7 7 9 11 13 12 11 10 8 8 9 10 10 9 8 7 7 6 3 1 1 1 2 3 3 1 0 1 1 1
0 0 0 0 0 0 0 0 0 1 2 3 5 7 5 4 6 10 13 12 13 16 17 17 16 15 13 10 7 7 9 11 11 10 10 9 8 5 3 2 1 1 2 3 2 1 1 2 2
0 0 0 0 0 0 0 0 0 1 2 4 6 7 5 4 7 14 19 20 20 22 22 20 18 19 19 17 12 10 12 13 13 13 13 12 11 8 7 5 2 1 2 2 1 1 2 4 4
0 0 0 0 0 0 0 0 0 1 3 5 7 7 6 6 7 13 20 22 22 21 22 21 21 23 26 25 21 19 19 16 14 14 15 15 13 11 8 5 3 2 2 1 1 2 3 4 5
0 0 0 0 0 0 0 0 0 1 3 5 6 6 7 8 8 10 15 18 19 18 19 23 27 31 33 33 29 27 23 18 15 17 18 18 16 13 8 4 3 3 1 1 3 4 4 4 5
0 0 0 0 0 0 0 0 0 1 2 2 4 6 8 10 10 10 11 14 17 19 22 27 35 40 40 36 32 30 27 22 20 20 20 19 17 15 10 6 4 3 2 4 7 10 8 5 5
0 0 0 0 0 0 0 0 0 0 0 0 1 4 8 10 12 13 13 14 18 23 28 34 40 43 41 37 33 32 30 27 25 23 21 18 16 15 13 9 6 5 4 6 10 13 11 7 6
0 0 0 0 0 0 0 0 0 0 0 0 1 3 7 10 12 14 14 14 18 25 32 37 40 41 38 36 35 34 34 31 28 27 22 17 14 13 12 11 9 8 7 8 11 12 10 8 7
0 0 0 0 0 0 0 0 0 1 1 1 2 4 7 11 13 13 14 15 17 23 30 37 41 41 37 35 35 36 37 35 32 29 25 19 15 13 14 14 12 11 10 11 11 10 9 8 7
0 0 0 0 0 0 0 0 2 4 5 4 5 7 9 12 14 14 15 17 18 22 28 35 40 41 37 34 33 35 38 39 36 33 29 22 18 18 19 18 17 14 12 11 12 12 11 9 8
0 0 0 0 0 0 0 0 3 7 7 6 7 10 11 13 15 16 17 19 20 23 29 34 37 40 39 37 37 37 38 38 38 38 33 26 22 21 21 21 20 16 11 10 11 11 10 10 9
0 0 0 0 0 0 0 1 4 7 8 7 8 9 12 13 15 18 20 20 22 25 29 33 37 40 42 43 43 41 39 38 39 39 35 28 23 21 20 21 20 15 10 9 10 9 7 8 10
Wind_Speed
7 7 6 5 2 8 13 11 9 8 7 8 8 7 9 10 9 11 8 9 9 10 11 12 11 12 12 12 13 13 13 13 13 13 13 13 13 13 13 13 12 13 13 13 13 13 12 12 12
4 5 6 3 4 10 12 10 10 10 8 7 7 8 10 10 10 10 9 9 10 10 11 11 12 12 12 12 12 12 12 12 12 13 13 13 12 12 12 12 12 12 12 12 12 12 12 12 12
5 6 4 3 10 11 11 9 10 9 7 6 6 8 8 8 8 7 10 11 10 10 12 13 11 12 12 11 11 11 12 12 13 13 12 12 12 12 12 11 12 12 12 12 12 12 11 11 11
5 5 1 7 14 12 10 9 8 8 8 7 8 9 8 7 5 10 12 11 11 11 12 13 10 11 11 11 11 11 11 12 12 12 12 12 12 12 11 11 11 11 11 11 11 11 11 10 10
5 2 6 11 13 10 9 7 5 7 7 7 8 11 9 7 11 13 11 10 10 10 11 13 11 10 10 10 10 11 11 11 12 12 12 12 12 11 11 11 11 10 10 11 10 10 10 10 10
3 1 6 11 12 9 8 6 7 9 10 9 9 10 9 8 11 11 10 9 10 10 11 13 11 10 10 10 10 10 10 11 11 11 11 11 11 11 10 10 10 10 10 10 10 9 9 9 9
2 3 9 10 11 9 7 6 7 8 9 8 6 9 9 9 9 10 9 8 8 9 9 10 10 11 11 10 10 10 10 10 10 11 11 10 10 10 10 10 9 9 9 9 9 9 9 8 8
3 2 8 8 9 10 8 7 7 7 9 8 5 7 10 12 10 10 9 8 7 7 7 8 8 8 9 11 10 10 10 10 10 10 10 9 10 9 8 9 9 9 9 9 9 8 8 8 7
5 2 8 8 7 9 9 9 8 7 9 7 6 8 14 15 13 11 9 8 7 7 6 6 7 6 6 8 11 10 10 8 8 9 8 5 5 7 6 9 9 8 8 8 8 8 7 7 8
2 5 9 7 7 8 8 8 8 8 9 9 10 13 16 14 12 11 10 9 9 8 7 5 5 6 6 6 6 5 6 6 4 5 5 4 4 3 5 9 7 7 7 8 7 7 7 6 5
2 7 8 7 7 8 9 8 7 7 7 8 12 15 15 13 11 10 9 8 8 8 7 6 5 4 4 4 4 3 3 4 4 5 4 3 2 3 3 4 5 5 6 5 7 6 3 2 2
4 7 7 8 8 7 8 8 7 5 7 9 12 15 15 13 11 9 9 7 8 8 7 6 6 4 3 2 3 3 3 3 3 4 2 3 2 1 2 1 2 2 2 2 1 1 2 1 1
6 7 7 8 8 8 8 8 7 7 8 11 13 14 13 12 10 8 7 7 7 7 7 6 6 5 4 2 2 3 2 2 3 2 2 1 2 2 2 1 0 0 1 2 1 1 1 1 1
6 8 8 8 8 8 8 8 6 7 10 13 13 13 12 11 10 9 8 8 8 7 7 7 6 5 4 3 2 2 2 2 1 2 2 1 1 2 1 1 0 0 0 1 0 1 1 1 1
7 9 9 7 6 6 7 7 6 9 11 12 12 11 11 10 9 9 8 8 8 7 7 7 6 6 5 4 4 3 2 2 1 2 2 1 1 1 1 1 1 0 0 1 1 1 1 2 2
8 8 8 7 5 5 6 6 8 10 11 11 11 10 10 10 9 8 8 7 7 7 7 7 6 7 6 5 3 2 2 2 2 1 2 2 1 2 2 1 0 0 1 1 1 2 1 1 1
10 8 8 8 5 5 5 5 9 10 10 10 10 10 10 10 10 9 8 8 7 7 7 7 7 6 6 6 4 3 2 2 2 2 1 1 2 2 2 1 0 2 1 1 2 0 1 1 1
9 8 7 7 7 6 6 5 9 9 10 10 10 10 10 10 10 10 9 8 7 7 7 7 7 6 6 5 4 3 3 3 3 2 2 2 2 2 2 2 2 2 1 1 1 1 1 2 2
5 7 7 6 5 5 5 5 7 9 9 9 9 10 10 10 10 9 10 9 9 8 8 8 8 7 6 5 5 5 4 4 3 3 3 3 3 3 3 3 1 3 2 2 2 2 2 2 2
8 8 7 7 5 4 4 4 5 8 9 9 9 10 10 10 10 10 10 10 9 9 9 9 9 8 8 6 4 4 3 3 3 3 3 4 4 4 3 2 3 2 2 3 3 3 3 2 2
9 8 8 7 7 6 6 6 7 7 8 8 8 9 10 10 11 11 11 10 10 10 9 8 9 8 8 7 5 4 4 4 4 5 4 4 4 4 3 3 3 3 3 2 3 3 3 3 2
9 5 5 7 8 6 6 5 7 8 8 9 9 10 10 10 10 10 10 10 10 10 9 9 9 9 8 8 8 8 6 5 4 3 3 3 4 4 4 5 4 4 3 3 4 3 3 3 3
4 6 6 6 7 6 6 7 5 8 8 9 10 10 10 9 9 10 10 10 10 10 10 9 9 9 8 8 8 7 7 5 4 3 3 3 3 4 4 4 4 4 4 3 4 3 4 3 3
8 8 6 7 8 8 6 7 4 5 5 5 7 8 9 8 9 9 9 9 9 9 9 9 9 9 9 9 8 8 7 6 5 4 4 4 3 3 4 4 4 4 3 3 3 3 4 3 3
11 10 8 9 8 6 4 6 2 2 1 2 3 5 6 7 8 8 9 9 9 9 9 9 10 9 9 9 8 8 8 7 6 5 5 5 3 3 3 3 3 3 2 3 3 3 3 3 3
13 13 8 7 7 6 6 6 2 3 2 2 2 3 5 6 7 7 8 9 9 10 10 10 9 9 9 8 8 7 7 6 5 5 5 4 3 3 2 3 3 2 3 3 2 2 2 2 2
12 11 7 6 4 5 6 4 4 4 4 3 3 3 4 4 6 7 7 8 9 9 10 10 9 9 8 8 7 6 6 6 5 4 5 4 3 3 3 3 3 3 2 2 2 2 2 2 2
7 9 7 8 6 8 7 7 4 6 4 4 3 3 3 3 4 5 6 7 7 8 8 8 8 8 7 7 6 5 6 6 5 4 4 3 3 2 2 3 3 2 2 2 2 2 2 2 2
10 10 8 7 7 7 6 4 3 2 3 3 3 3 3 3 4 4 4 5 6 6 7 8 8 8 7 6 6 5 5 5 4 4 3 3 3 2 3 2 2 2 2 2 2 2 2 2 2
10 11 11 9 7 7 6 3 6 3 3 2 2 2 2 2 2 3 4 4 5 6 7 7 7 7 7 6 5 5 4 4 4 3 3 3 2 2 2 2 2 2 2 2 2 2 2 2 1
Wind_Direction
217 199 219 235 196 76 68 66 73 83 73 68 67 64 64 44 40 83 100 108 111 111 111 112 101 101 100 100 100 102 103 103 105 106 108 109 110 109 108 108 108 111 112 112 112 110 108 108 107
221 207 229 243 63 77 70 69 73 72 91 99 80 74 73 66 65 98 115 115 117 112 112 104 104 103 102 102 102 102 102 102 103 104 106 106 107 108 110 108 108 109 111 113 113 111 110 109 108
222 238 268 65 59 64 77 76 85 89 92 91 82 64 61 75 91 102 114 125 119 113 108 102 106 105 104 104 104 102 102 101 102 101 102 103 102 104 109 109 109 111 111 111 111 110 110 109 110
236 215 205 74 75 68 78 89 100 104 90 80 94 87 77 64 86 110 123 127 120 113 109 107 107 106 108 107 106 104 104 102 101 101 100 100 100 100 101 106 108 109 111 112 111 111 110 109 109
243 244 102 86 80 81 80 83 86 86 86 89 92 96 86 78 103 117 125 125 118 111 110 111 108 107 108 108 107 105 104 103 101 100 99 99 101 103 105 106 106 107 109 110 110 110 110 110 109
238 221 93 88 90 93 89 91 89 89 96 98 104 103 87 107 118 124 123 119 114 113 112 112 111 105 105 108 107 105 104 104 101 100 99 99 99 101 106 107 106 106 108 109 110 110 111 112 112
345 66 82 91 101 99 91 97 93 99 102 97 106 104 111 125 124 123 121 121 114 114 115 119 126 122 114 107 106 106 105 103 101 99 99 101 100 99 98 103 105 107 109 110 109 109 108 113 115
316 121 100 92 96 97 109 107 96 98 100 111 120 120 134 139 136 132 128 122 114 112 113 120 119 121 129 126 116 110 107 105 103 100 100 107 112 111 111 114 102 103 106 108 109 110 111 112 115
261 117 91 88 90 105 126 121 105 101 111 108 90 99 122 136 142 139 134 133 130 123 122 124 122 125 124 120 124 129 122 119 128 120 122 153 131 120 129 93 102 105 107 108 109 115 120 130 134
275 82 79 77 87 113 125 121 126 131 125 119 111 108 123 140 147 148 149 148 147 139 135 133 124 126 126 116 123 130 128 124 119 105 121 118 99 93 101 110 111 111 116 125 120 128 161 188 151
53 80 90 98 105 120 124 121 129 134 126 135 136 136 141 148 151 154 153 151 146 144 144 140 131 126 122 120 124 117 114 117 121 113 111 101 120 131 134 132 140 140 152 144 142 174 173 140 121
105 91 96 102 113 124 118 118 115 93 93 118 135 142 149 155 159 162 157 155 152 154 151 149 140 140 129 116 122 138 134 129 120 121 144 125 111 104 98 110 114 138 131 113 121 129 110 110 152
116 106 104 109 120 116 115 108 104 97 108 124 135 147 156 159 160 162 160 161 161 163 163 155 152 147 146 148 169 134 124 121 121 123 119 125 135 104 97 94 80 101 110 148 153 133 125 200 195
112 122 119 119 121 127 124 115 115 110 127 135 145 155 162 162 164 165 170 174 175 175 169 162 166 160 166 172 171 152 155 143 144 141 135 154 106 99 121 156 161 13 259 48 175 158 171 236 230
145 143 135 129 137 142 147 127 117 130 142 146 153 158 164 168 173 178 178 182 183 178 171 169 175 173 180 190 191 182 180 166 162 146 152 175 198 153 197 212 214 116 251 197 235 251 230 222 205
175 180 157 138 156 166 207 128 131 146 154 154 159 163 170 175 184 185 184 188 190 184 175 182 188 178 186 195 210 205 192 172 178 196 182 188 213 215 242 246 204 149 242 226 223 236 257 267 236
193 190 161 144 166 173 207 130 135 160 165 163 168 173 178 179 189 189 192 193 193 191 185 193 200 189 191 193 204 212 200 208 209 209 205 189 214 223 239 254 105 251 251 251 263 86 261 231 236
187 184 171 158 157 186 189 148 144 170 179 175 176 181 186 189 192 191 193 196 194 192 193 199 200 199 196 194 198 214 209 201 210 211 211 233 222 223 245 233 215 252 249 272 309 301 277 257 250
192 190 174 147 145 197 190 170 163 176 191 189 186 188 193 199 194 192 194 198 197 197 199 202 205 196 199 199 205 204 204 205 207 212 215 226 233 227 238 266 223 250 247 254 256 258 239 238 235
191 192 173 149 155 212 195 186 172 183 199 198 196 195 198 197 196 195 197 199 199 199 205 207 206 200 201 201 209 218 221 220 215 221 212 227 227 230 225 235 253 244 249 252 268 262 261 248 228
200 204 185 167 166 201 216 202 187 183 199 202 207 206 205 203 200 196 198 202 203 202 205 207 206 202 206 204 205 204 205 223 214 213 210 220 225 229 242 241 245 247 252 249 253 251 248 254 239
194 197 188 181 202 191 229 222 179 183 191 203 208 209 209 207 206 199 198 202 206 205 202 205 203 203 203 205 213 212 215 223 226 232 219 210 217 225 226 231 234 242 250 247 249 240 253 255 257
181 164 192 206 222 222 211 251 168 177 199 202 204 208 210 206 205 203 202 202 205 202 200 198 197 200 201 207 211 217 226 227 227 230 223 231 219 225 230 232 232 237 246 250 258 258 257 250 256
153 160 172 213 229 224 220 244 194 168 203 197 190 199 206 206 202 201 199 197 201 200 198 195 191 196 200 206 211 219 230 232 233 229 231 228 221 221 221 231 229 235 243 245 249 248 245 257 266
194 194 195 204 213 214 185 236 207 119 167 222 197 191 196 199 200 195 194 194 197 199 198 196 189 195 200 205 210 215 223 223 226 230 230 240 239 226 216 233 227 231 229 240 247 242 261 256 256
206 218 229 224 211 189 178 227 145 120 140 176 192 179 177 187 194 193 193 192 193 195 195 196 192 195 198 202 209 213 214 219 224 223 239 239 248 249 232 229 226 225 229 233 228 248 243 247 258
200 222 245 252 242 231 183 189 175 169 166 157 163 164 163 175 184 189 190 191 190 192 192 195 190 192 193 197 202 205 209 223 233 225 228 240 239 241 223 224 225 221 219 227 234 251 259 246 250
232 205 209 233 229 226 202 206 186 162 161 151 158 160 162 170 177 181 187 189 191 189 188 188 184 182 186 190 198 194 200 211 223 231 227 242 244 249 232 223 218 212 208 212 228 236 238 244 251
190 203 220 224 245 247 218 177 96 149 143 149 138 130 151 166 170 168 173 177 184 182 176 177 176 177 182 190 192 197 193 199 207 214 219 225 233 223 212 208 201 194 198 206 215 234 230 235 247
214 208 210 217 216 252 264 134 99 120 137 137 120 103 109 129 141 144 151 157 164 166 164 165 167 173 176 176 180 185 187 195 196 198 203 208 211 201 190 188 177 186 194 201 214 228 228 234 244